Weather in Volgoelektroset'stroy

Russia / Lipetsk Oblast     52°32′27″N   40°03′53″E
temp.,
°C
wind,
m/s
gust,
m/s
humid.,
%
clouds,
%
prec.,
mm/h
press.,
hPa
HPBL,
m
17 april, sat
sat1700:00+11ssw226261 0.0 101925
03:00+10ne1164100 0.0 101810
06:00+9e3469100 0.0 101773
09:00+9wsw3381100 0.1 1018305
12:00+9sw2287100 1.5 1018287
15:00+11ssw3476100 4.3 1018698
18:00+11sw2372100 0.4 1018520
21:00+8wnw128212 0.6 101912
18 april, sun
sun1800:00+7ese118558 0.0 101910
03:00+6sse228862 0.0 101920
06:00+6ssw2384100 0.0 101986
09:00+8sw347386 0.0 1020423
12:00+11ssw3353100 0.1 10191566
15:00+11s2353100 0.1 10201111
18:00+11ssw226188 0.0 1020178
21:00+9sse116528 0.0 102112
19 april, mon
mon1900:00+7se227292 0.0 102015
03:00+6ese2276100 0.0 102014
06:00+6ene3376100 0.0 102040
09:00+10e345746 0.0 1020469
12:00+13e23445 0.0 10181382
15:00+15ene444671 0.2 10171617
18:00+13ne5759100 0.3 1016317
21:00+10e71088100 1.1 1017572
20 april, tue
tue2000:00+8e71388100 2.4 1016741
03:00+8e71392100 3.5 1015701
06:00+7e81492100 1.3 1013648
09:00+8e81590100 1.9 1012748
12:00+8e101890100 0.3 1010803
15:00+8ese122191100 4.6 1006835
18:00+9ese142589100 2.2 10031275
21:00+12se111990100 5.1 10021081
21 april, wed
wed2100:00+11sse9178269 0.6 10021016
03:00+9s71492100 5.1 10021247
06:00+8s61191100 1.1 10031052
09:00+6sw71288100 1.6 1008912
12:00+9sw81169100 0.0 10111340
15:00+11sw71058100 0.1 10131688
18:00+11s596790 0.0 1015552
21:00+9s488899 0.8 1016211